STARLINK-3290 (50828 NORAD) Tracking and Keplerian Element Data

This shows tracking and keplerian element data for the satellite.

Feedback or suggestion? Click here.




ElementValue
Catalog50828
NameSTARLINK-3290
Epoch Orbit383
Epoch Day22.91667824
Epoch Year2022
RAAN119.7596
Inclination53.2175
Eccentricity0.0001018
Argument of Perigee88.5404
Mean Anonmoly226.9167
Mean Motion15.75286799
Decay Rate-0.00820908
L11 50828U 22001AB 22022.91667824 -.00820908 00000+0 -58805-2 0 9995
L22 50828 53.2175 119.7596 0001018 88.5404 226.9167 15.75286799 3831

Live tracking and technical data element details for STARLINK-3290 (NORAD 50828). STARLINK-3290 can be tracked NOW for your location showing map with azimuth and elevation plus other details from your city location.

Track the satellite on the map from your city or location and see movement details for azimuth, elevation, latitude, longitude, range, height, and movement on the map or in text.







IsCatalogInMostPopularTable: catalog: 50828, numindb: 2
Update: records affected: 1



GetName: 50828 STARLINK-3290

Hit Count: updated at: Mon, 24 Jan 2022 00:47:03 GMT